Hourly Data Report for May 05, 2012

All times are specified in Local Standard Time (LST). Add 1 hour to adjust for Daylight Saving Time where and when it is observed.

DEER LAKE A
NEWFOUNDLAND

49°12'33.000" N
57°23'40.000" W
21.90 m
8401502
71809
YDF

Download Data

Hourly Data (May 2012)
Hourly Data Report for May 5, 2012
Temp Definition
°C
Dew Point Temp Definition
°C
Rel Hum Definition
%
Wind Dir Definition
10's deg

Wind Spd Definition
km/h
Visibility Definition
km
Stn Press Definition
kPa
Hmdx Definition


Wind Chill Definition


Weather Definition


TIME
00:30 3.4 1.0 84 7 8 10.0 101.81     LegendNANA
01:30 3.2 1.1 86 5 10 10.0 101.78     LegendNANA
02:30 3.0 1.2 88 4 12 10.0 101.73     Cloudy
03:30 3.0 1.4 89 5 16 10.0 101.71     LegendNANA
04:30 3.0 1.4 89 5 17 10.0 101.67     LegendNANA
05:30 2.9 1.6 91 5 15 10.0 101.67     Cloudy
06:30 3.1 2.1 93 4 13 10.0 101.69     LegendNANA
07:30 3.8 2.3 90 5 16 10.0 101.69     LegendNANA
08:30 5.1 3.0 86 3 20 10.0 101.68     Cloudy
09:30 6.0 3.5 84 3 17 10.0 101.66     LegendNANA
10:30 7.7 4.5 80 6 20 10.0 101.66     LegendNANA
11:30 9.6 5.0 73 2 15 10.0 101.64     Cloudy
12:30 11.8 6.1 68 5 13 10.0 101.58     LegendNANA
13:30 13.9 7.3 64 3 15 10.0 101.51     LegendNANA
14:30 15.8 7.9 59 4 22 10.0 101.44     Mostly Cloudy
15:30 16.0 7.6 57 3 21 10.0 101.41     LegendNANA
16:30 15.1 7.0 58 3 28 10.0 101.41     LegendNANA
17:30 13.7 6.6 62 2 19 10.0 101.42     Mostly Cloudy
18:30 11.9 6.2 68 2 15 10.0 101.46     LegendNANA
19:30 8.6 5.0 78 4 16 10.0 101.50     LegendNANA
20:30 6.2 3.9 85 5 20 10.0 101.55     Mostly Cloudy
21:30 5.1 3.4 89 6 18 10.0 101.58     LegendNANA
22:30 5.3 3.6 89 2 15 10.0 101.58     LegendNANA
23:30 5.2 3.7 90 5 14 10.0 101.57     Mostly Cloudy

Notes on Data Quality.

Legend

  • E = Estimated
  • M = Missing
  • NA = Not Available
Date modified: